Погода в Узбекистане

Узбекистан     39°23′38″N   63°56′10″E
темп.,
°C
ветер,
м/с
пор.,
м/с
влажн.,
%
обл.,
%
осадки,
мм/ч
давл.,
гПа
погр.,
м
5 декабря, вс
вс523:00+8з3434100 0.0 1024385
02:00+7з333599 0.0 1024437
05:00+7зюз2336100 0.0 1024352
08:00+6юз2245100 0.0 1024286
11:00+7ю2350100 0.0 1025494
14:00+9ю235316 0.0 1023740
17:00+8юв22585 0.0 102217
20:00+6вюв22703 0.0 102312
6 декабря, пн
пн623:00+5вюв44710 0.0 102227
02:00+5юв44770 0.0 102126
05:00+5вюв44800 0.0 102138
08:00+4вюв45795 0.0 102141
11:00+12юв7104592 0.0 1021515
14:00+16юв5731100 0.0 1018805
17:00+14в4433100 0.0 101835
20:00+12всв4540100 0.0 102063
7 декабря, вт
вт723:00+11всв334599 0.0 102023
02:00+9св224891 0.0 102110
05:00+10с234595 0.0 102211
08:00+9ссз334691 0.0 102314
11:00+13сз233542 0.0 1025287
14:00+16з44305 0.0 1024852
17:00+13зсз33370 0.0 102417
20:00+9з44520 0.0 102635
8 декабря, ср
ср823:00+7зюз44620 0.0 102726
02:00+6юз44680 0.0 102728
05:00+4юз33760 0.0 102813
08:00+3ююв22770 0.0 102911
11:00+10ююв34500 0.0 1029372
14:00+13ю23380 0.0 1027833
17:00+11вюв22420 0.0 102711
20:00+9в44470 0.0 102832
9 декабря, чт
чт923:00+8в33530 0.0 102817
02:00+8в44530 0.0 102729
05:00+7в57510 0.0 102669
08:00+7в58510 0.0 102678
11:00+15вюв68270 0.0 1025363
14:00+20вюв67185 0.0 1022787
17:00+16в58210 0.0 102169
20:00+12в68241 0.0 102172